カタログに戻る

STARLINK-36175

運用中通信VLEO
NORAD 67012·PAYLOAD·🇺🇸 United States

打ち上げ Dec 10, 2025 から Vandenberg Space Force Base

Loading…

次のパス (今後24時間)

TLE

最新Source: CelesTrak SupGP

元期: Sep 15, 2026, 03:17 UTC

1 67012C 25293K   26258.13729167  .00056356  00000+0  47228-2 0  2583
2 67012  70.0019 336.9667 0003673 266.1954 355.2446 14.98300976    14

AllMySatでSTARLINK-36175をリアルタイム追跡

Download on the App Store